Home > Weather > Oakland > Past weeks

Flag for USA Past Weather in Oakland, California, USA — Yesterday and Last 2 Weeks

Now
59 °F

Clear.


Feels Like: 59 °F
Forecast: 56 / 78 °F
Wind: No wind

Location: Metro Oakland International Airport

Current Time: Jul 23, 2016 at 2:19:37 AM

Latest Report: Jul 23, 2016 at 1:53 AM


Visibility: 10 mi

Pressure: 29.99 "Hg

Humidity: 87%

Dew Point: 55 °F

Location of OaklandLocation

Past Weather in Oakland — Graph

°F

Oakland Temperature Yesterday

Maximum temperature yesterday: 72 °F (at 1:53 PM)
Minimum temperature yesterday: 57 °F (at 12:53 AM)
Average temperature yesterday: 64 °F

High & Low Weather Summary for the Past Weeks

 TemperatureHumidityPressure
High79 °F (Jul 13, 2:53 PM)90% (Jul 8, 4:53 AM)30.13 "Hg (Jul 8, 4:53 AM)
Low54 °F (Jul 11, 5:53 AM)39% (Jul 13, 2:53 PM)29.86 "Hg (Jul 16, 5:53 PM)
Average63 °F72%30.01 "Hg
* Reported Jul 8 12:53 AM — Jul 23 12:53 AM, Oakland, Weather by CustomWeather, © 2016

Note: Actual official high and low records may vary slightly from our data, if they occured in-between our weather recording intervals... More about our weather records

Advertising

Oakland Weather History for the Previous 24 Hours

Scroll right to see more
 ConditionsComfort  
Time TempWeatherWind HumidityBarometerVisibility
12:53 AM
Sat, Jul 23
58 °FClear.No wind84%30.01 "Hg10 mi
11:53 PM
Fri, Jul 22
61 °FClear.6 mph81%30.02 "Hg10 mi
10:53 PM62 °FClear.8 mph78%30.03 "Hg10 mi
9:53 PM63 °FClear.7 mph75%30.04 "Hg10 mi
8:53 PM64 °FSunny.8 mph73%30.03 "Hg10 mi
7:53 PM66 °FSunny.14 mph68%30.03 "Hg10 mi
6:53 PM69 °FPassing clouds.13 mph63%30.03 "Hg10 mi
5:53 PM70 °FPassing clouds.14 mph59%30.04 "Hg10 mi
4:53 PM71 °FPassing clouds.15 mph57%30.06 "Hg10 mi
3:53 PM70 °FPassing clouds.16 mph59%30.08 "Hg10 mi
2:53 PM72 °FPassing clouds.15 mph55%30.10 "Hg10 mi
1:53 PM72 °FPassing clouds.15 mph53%30.11 "Hg10 mi
12:53 PM71 °FPassing clouds.13 mph57%30.12 "Hg10 mi
11:53 AM69 °FPassing clouds.12 mph59%30.13 "Hg10 mi
10:53 AM65 °FPassing clouds.6 mph68%30.13 "Hg10 mi
9:53 AM63 °FPassing clouds.6 mph78%30.13 "Hg10 mi
8:53 AM62 °FPassing clouds.5 mph80%30.13 "Hg10 mi
7:53 AM61 °FPassing clouds.3 mph83%30.11 "Hg10 mi
6:53 AM59 °FPassing clouds.No wind87%30.10 "Hg10 mi
5:53 AM58 °FPassing clouds.6 mph90%30.09 "Hg10 mi
5:00 AM59 °FPassing clouds.7 mph90%30.09 "Hg10 mi
3:53 AM59 °FPassing clouds.7 mph87%30.08 "Hg10 mi
2:53 AM58 °FClear.No wind90%30.09 "Hg10 mi
Weather by CustomWeather, © 2016

See weather overviewHow to use our weather pages